Simultaneous Nadir Overpasses (SNOs) Predictions

Prediction of SNOs between GOES-16 and METOP-C Satellite Orbit:

Table of predicted SNOs for the next 14.0 days since TLE Epoch: 5/13/2023
Index Date Time (GOES-16) GOES-16 Lat,Lon METOP-C Lat,Lon Distance(km) Time Diff (sec)
1 05/13/2023 14:18:05 0.02, -75.20 -0.63, -72.37 322.68 80
2 05/15/2023 02:39:44 -0.02, -75.20 -0.42, -76.96 201.29 80
3 05/16/2023 02:16:24 -0.02, -75.21 0.72, -71.97 368.96 80
4 05/17/2023 14:37:55 0.02, -75.23 0.28, -76.53 147.21 80
5 05/18/2023 14:14:34 0.02, -75.25 -0.81, -71.53 423.45 80
6 05/20/2023 02:36:14 -0.02, -75.25 -0.24, -76.12 99.56 80
7 05/21/2023 02:12:54 -0.02, -75.27 0.91, -71.13 471.23 80
8 05/22/2023 14:34:23 0.02, -75.30 0.13, -75.69 44.18 80
9 05/25/2023 02:30:03 -0.01, -75.34 -0.02, -75.29 5.32 80
